EW8974 Weather Reports


Display with metric or nautical units.
time (UTC)temp
F
wind
direction
speed
MPH
gust
MPH
rain 1hr
in
rain 24hr
in
rain mn
in
humidity
%
barometer
mb
20260506102524 57 23 2.0 9.0 0.00 0.00 0.00 86 1004.1
20260506102023 57 13 1.0 5.0 0.00 0.00 0.00 86 1004.1
20260506101538 57 70 1.0 5.0 0.00 0.00 0.00 86 1003.9
20260506101023 57 51 1.0 5.0 0.00 0.00 0.00 87 1003.9
20260506100521 57 332 1.0 5.0 0.00 0.00 0.00 87 1004.0
20260506100021 57 307 0.0 4.0 0.00 0.00 0.00 88 1003.9
20260506095519 57 22 1.0 4.0 0.00 0.00 0.00 88 1003.6
20260506095022 57 34 1.0 4.0 0.00 0.00 0.00 88 1003.6
20260506094523 57 57 1.0 5.0 0.00 0.00 0.00 88 1003.6
20260506094022 57 5 1.0 5.0 0.00 0.00 0.00 88 1003.6
20260506093517 57 63 1.0 5.0 0.00 0.00 0.00 88 1003.5
20260506093021 57 352 0.0 5.0 0.00 0.00 0.00 88 1003.6
20260506092515 58 51 1.0 5.0 0.00 0.00 0.00 87 1003.6
20260506092016 58 44 1.0 6.0 0.00 0.00 0.00 87 1003.7
20260506091515 58 64 1.0 6.0 0.00 0.00 0.00 86 1003.5
20260506091013 58 1 0.0 5.0 0.00 0.00 0.00 85 1003.5
20260506090512 59 354 1.0 4.0 0.00 0.00 0.00 84 1003.5
20260506090010 59 341 1.0 5.0 0.00 0.00 0.00 84 1003.5
20260506085508 60 47 0.0 5.0 0.00 0.00 0.00 83 1003.4
20260506085006 60 30 0.0 5.0 0.00 0.00 0.00 81 1003.3
20260506084505 61 53 1.0 5.0 0.00 0.00 0.00 80 1003.3
20260506084004 61 56 2.0 6.0 0.00 0.00 0.00 79 1003.0
20260506083504 61 33 0.0 6.0 0.00 0.00 0.00 79 1003.2
20260506083004 61 320 1.0 4.0 0.00 0.00 0.00 80 1003.0
20260506082504 61 91 0.0 4.0 0.00 0.00 0.00 80 1002.9
20260506082001 61 18 0.0 4.0 0.00 0.00 0.00 80 1003.0
20260506081501 61 53 0.0 4.0 0.00 0.00 0.00 80 1002.8
20260506081003 61 79 1.0 5.0 0.00 0.00 0.00 80 1002.7
20260506080601 62 34 2.0 5.0 0.00 0.00 0.00 80 1002.7
20260506073056 62 48 2.0 4.0 0.00 0.00 0.00 80 1003.0
20260506072557 62 314 1.0 5.0 0.00 0.00 0.00 80 1003.1
20260506072054 63 115 2.0 6.0 0.00 0.00 0.00 80 1003.1
20260506071556 63 51 2.0 6.0 0.00 0.00 0.00 80 1003.1
20260506071054 63 70 0.0 6.0 0.00 0.00 0.00 79 1003.1
20260506070553 63 82 2.0 8.0 0.00 0.00 0.00 79 1003.2
20260506062047 64 39 1.0 8.0 0.00 0.00 0.00 79 1003.0
20260506061547 64 34 0.0 8.0 0.00 0.00 0.00 79 1003.0
20260506061046 64 3 1.0 6.0 0.00 0.00 0.00 79 1002.9
20260506060547 64 314 1.0 5.0 0.00 0.00 0.00 79 1002.8
20260506051034 68 74 2.0 8.0 0.00 0.00 0.00 77 1002.8
20260506050533 68 56 1.0 7.0 0.00 0.00 0.00 77 1002.8
20260506045030 69 55 2.0 9.0 0.00 0.00 0.00 76 1002.5
20260506044559 69 69 2.0 9.0 0.00 0.00 0.00 76 1002.7
20260506044031 69 304 1.0 9.0 0.00 0.00 0.00 76 1002.8
20260506043529 69 25 1.0 5.0 0.00 0.00 0.00 76 1002.6
20260506043031 69 20 1.0 7.0 0.00 0.00 0.00 76 1002.6
20260506042528 69 302 0.0 7.0 0.00 0.00 0.00 75 1002.6
20260506042027 70 356 1.0 5.0 0.00 0.00 0.00 74 1002.6
20260506041526 70 321 1.0 5.0 0.00 0.00 0.00 74 1002.5
20260506041030 70 52 1.0 8.0 0.00 0.00 0.00 74 1002.4
20260506040525 70 59 2.0 7.0 0.00 0.00 0.00 73 1002.3
20260506040028 70 330 1.0 6.0 0.00 0.00 0.00 73 1002.4
20260506035526 71 349 1.0 5.0 0.00 0.00 0.00 73 1002.2
20260506035022 71 77 2.0 5.0 0.00 0.00 0.00 73 1002.0
20260506034543 71 44 1.0 5.0 0.00 0.00 0.00 73 1001.8
20260506034022 71 46 2.0 6.0 0.00 0.00 0.00 72 1001.6
20260506033522 71 46 1.0 7.0 0.00 0.00 0.00 72 1001.7
20260506033021 71 56 2.0 7.0 0.00 0.00 0.00 71 1001.5
20260506032521 72 98 2.0 7.0 0.00 0.00 0.00 71 1001.5
20260506032024 72 75 2.0 6.0 0.00 0.00 0.00 71 1001.5
20260506031521 72 53 0.0 9.0 0.00 0.00 0.00 71 1001.5
20260506031021 72 68 3.0 9.0 0.00 0.00 0.00 71 1001.6
20260506030522 73 61 1.0 7.0 0.00 0.00 0.00 70 1001.5
20260506030019 73 41 2.0 6.0 0.00 0.00 0.00 70 1001.5
20260506025518 74 19 1.0 7.0 0.00 0.00 0.00 71 1001.4
20260506025018 74 36 2.0 7.0 0.00 0.00 0.00 70 1001.1
20260506024517 74 12 2.0 6.0 0.00 0.00 0.00 71 1001.0
20260506024017 75 39 1.0 5.0 0.00 0.00 0.00 71 1000.9
20260506023519 75 40 1.0 7.0 0.00 0.00 0.00 70 1000.7
20260506023017 76 72 2.0 7.0 0.00 0.00 0.00 70 1000.6
20260506022516 77 13 1.0 4.0 0.00 0.00 0.00 75 1000.5
20260506022016 77 329 0.0 2.0 0.00 0.00 0.00 81 1000.1
20260506021516 77 310 0.0 1.0 0.00 0.00 0.00 82 999.9
20260506021016 77 154 0.0 0.0 0.00 0.00 0.00 82 999.7
20260506020515 77 154 0.0 1.0 0.00 0.00 0.00 82 999.8
20260506020016 77 154 0.0 1.0 0.00 0.00 0.00 82 999.8
20260506015517 77 151 0.0 0.0 0.00 0.00 0.00 82 999.7
20260506015015 77 151 0.0 0.0 0.00 0.00 0.00 81 999.5
20260506014517 77 151 0.0 0.0 0.00 0.00 0.00 81 999.7
20260506014014 78 151 0.0 0.0 0.00 0.00 0.00 80 999.5
20260506013514 78 151 0.0 0.0 0.00 0.00 0.00 79 999.5
20260506013015 78 151 0.0 0.0 0.00 0.00 0.00 79 999.3
20260506012514 78 151 0.0 1.0 0.00 0.00 0.00 78 999.3
20260506012015 79 151 0.0 2.0 0.00 0.00 0.00 78 999.4
20260506011517 79 320 0.0 5.0 0.00 0.00 0.00 78 999.3
20260506011018 79 299 2.0 5.0 0.00 0.00 0.00 78 999.0
20260506010514 79 195 1.0 5.0 0.00 0.00 0.00 77 998.7
20260506010014 79 239 1.0 4.0 0.00 0.00 0.00 77 998.6
20260506005513 79 231 1.0 5.0 0.00 0.00 0.00 77 998.6
20260506005013 80 249 1.0 6.0 0.00 0.00 0.00 77 998.6
20260506004529 80 214 1.0 6.0 0.00 0.00 0.00 76 998.5
20260506004014 80 198 1.0 6.0 0.00 0.00 0.00 76 998.5
20260506003512 80 181 1.0 5.0 0.00 0.00 0.00 76 998.5
20260506003113 80 223 1.0 5.0 0.00 0.00 0.00 75 998.5
20260506002511 81 163 1.0 7.0 0.00 0.00 0.00 75 998.5
20260506002012 81 143 3.0 8.0 0.00 0.00 0.00 74 998.5
20260506001511 81 237 1.0 8.0 0.00 0.00 0.00 74 998.4
20260506001012 81 247 1.0 8.0 0.00 0.00 0.00 75 998.3
20260506000510 81 200 1.0 9.0 0.00 0.00 0.00 75 998.4
20260506000011 81 248 3.0 9.0 0.00 0.00 0.00 74 998.4
20260505235510 82 214 2.0 7.0 0.00 0.00 0.00 74 998.3
20260505235010 82 205 1.0 6.0 0.00 0.00 0.00 73 998.3
20260505234513 82 245 1.0 7.0 0.00 0.00 0.00 73 998.5
20260505234014 82 148 2.0 7.0 0.00 0.00 0.00 72 998.4
20260505233513 83 242 1.0 10.0 0.00 0.00 0.00 72 998.3
20260505233010 83 269 3.0 10.0 0.00 0.00 0.00 71 998.4
20260505232509 83 226 1.0 8.0 0.00 0.00 0.00 71 998.4
20260505232009 83 203 3.0 8.0 0.00 0.00 0.00 70 998.3
20260505231513 84 203 1.0 11.0 0.00 0.00 0.00 69 998.2
20260505231009 84 169 4.0 11.0 0.00 0.00 0.00 69 998.2
20260505230509 85 214 1.0 8.0 0.00 0.00 0.00 68 998.1
20260505230011 86 193 3.0 11.0 0.00 0.00 0.00 67 998.1
20260505225508 86 151 4.0 11.0 0.00 0.00 0.00 66 998.0
20260505225009 87 168 3.0 9.0 0.00 0.00 0.00 66 997.8
20260505224509 87 228 4.0 9.0 0.00 0.00 0.00 65 997.8
20260505224007 87 36 1.0 10.0 0.00 0.00 0.00 66 997.8
20260505223507 88 233 4.0 10.0 0.00 0.00 0.00 64 997.8
20260505223008 88 236 5.0 10.0 0.00 0.00 0.00 64 997.7
20260505222509 88 228 4.0 9.0 0.00 0.00 0.00 64 997.7
20260505222007 88 184 3.0 11.0 0.00 0.00 0.00 63 997.8
20260505221507 88 234 6.0 11.0 0.00 0.00 0.00 62 997.7
20260505221008 89 217 1.0 10.0 0.00 0.00 0.00 62 997.7
20260505220507 89 233 2.0 8.0 0.00 0.00 0.00 62 997.7
20260505220016 89 181 2.0 8.0 0.00 0.00 0.00 62 998.0
20260505215506 89 187 1.0 12.0 0.00 0.00 0.00 62 997.7
20260505215005 89 237 7.0 12.0 0.00 0.00 0.00 58 997.7
20260505214505 89 199 3.0 8.0 0.00 0.00 0.00 61 997.7
20260505214005 89 203 3.0 8.0 0.00 0.00 0.00 61 997.7
20260505213503 89 233 1.0 7.0 0.00 0.00 0.00 62 997.7
20260505213002 89 219 2.0 11.0 0.00 0.00 0.00 61 997.9
20260505212503 89 205 5.0 11.0 0.00 0.00 0.00 59 998.0
20260505212002 89 160 3.0 10.0 0.00 0.00 0.00 59 997.9
20260505211502 89 288 5.0 11.0 0.00 0.00 0.00 60 998.0
20260505211103 89 172 4.0 11.0 0.00 0.00 0.00 60 998.2
20260505210600 89 233 4.0 11.0 0.00 0.00 0.00 61 998.4
20260505210059 89 219 5.0 11.0 0.00 0.00 0.00 59 998.4
20260505205600 89 244 3.0 11.0 0.00 0.00 0.00 60 998.3
20260505205100 89 238 3.0 11.0 0.00 0.00 0.00 60 998.2
20260505204603 89 271 3.0 8.0 0.00 0.00 0.00 61 998.3
20260505204056 89 193 2.0 10.0 0.00 0.00 0.00 61 998.5
20260505203556 88 222 4.0 10.0 0.00 0.00 0.00 61 998.7
20260505203056 88 195 3.0 13.0 0.00 0.00 0.00 62 998.6
20260505202554 88 201 6.0 13.0 0.00 0.00 0.00 61 998.8
20260505202052 87 207 5.0 11.0 0.00 0.00 0.00 63 998.8
20260505201551 87 231 4.0 13.0 0.00 0.00 0.00 64 998.8
20260505201050 87 203 3.0 13.0 0.00 0.00 0.00 64 998.8
20260505200550 87 154 3.0 11.0 0.00 0.00 0.00 64 999.0
20260505200049 86 235 4.0 16.0 0.00 0.00 0.00 65 999.0
20260505195549 86 230 5.0 12.0 0.00 0.00 0.00 65 998.8
20260505195048 86 263 6.0 12.0 0.00 0.00 0.00 63 999.0
20260505194548 86 231 5.0 10.0 0.00 0.00 0.00 64 998.9
20260505194048 86 219 3.0 13.0 0.00 0.00 0.00 66 999.0
20260505193547 86 316 4.0 13.0 0.00 0.00 0.00 64 999.1
20260505193049 86 229 6.0 12.0 0.00 0.00 0.00 65 999.2
20260505192546 86 214 5.0 9.0 0.00 0.00 0.00 64 999.2
20260505192044 85 266 3.0 11.0 0.00 0.00 0.00 67 999.2
20260505191554 85 235 4.0 11.0 0.00 0.00 0.00 66 999.2
20260505191043 85 219 2.0 13.0 0.00 0.00 0.00 67 999.2
20260505190543 84 259 4.0 13.0 0.00 0.00 0.00 67 999.3
20260505190044 84 205 3.0 12.0 0.00 0.00 0.00 67 999.5
20260505185539 84 209 4.0 12.0 0.00 0.00 0.00 66 999.4
20260505185039 84 206 6.0 13.0 0.00 0.00 0.00 68 999.4
20260505184539 83 270 7.0 16.0 0.00 0.00 0.00 67 999.4
20260505184039 83 305 6.0 16.0 0.00 0.00 0.00 67 999.5
20260505183538 84 174 6.0 12.0 0.00 0.00 0.00 67 999.6
20260505183037 83 329 4.0 11.0 0.00 0.00 0.00 68 999.7
20260505182536 83 242 6.0 13.0 0.00 0.00 0.00 68 999.8
20260505182040 83 239 5.0 13.0 0.00 0.00 0.00 68 999.8
20260505181534 83 311 4.0 11.0 0.00 0.00 0.00 69 999.8
20260505181034 82 311 4.0 12.0 0.00 0.00 0.00 71 999.8
20260505180533 82 219 5.0 12.0 0.00 0.00 0.00 70 999.9
20260505180044 82 192 4.0 10.0 0.00 0.00 0.00 70 999.9
20260505175531 82 248 5.0 10.0 0.00 0.00 0.00 70 999.9
20260505175033 81 283 3.0 12.0 0.00 0.00 0.00 71 1000.0
20260505174537 81 305 3.0 12.0 0.00 0.00 0.00 71 999.9
20260505174028 81 342 6.0 15.0 0.00 0.00 0.00 70 999.7
20260505173528 81 284 4.0 15.0 0.00 0.00 0.00 71 999.7
20260505173027 81 238 6.0 14.0 0.00 0.00 0.00 71 999.6
20260505172529 81 172 5.0 14.0 0.00 0.00 0.00 72 999.6
20260505172024 80 196 6.0 13.0 0.00 0.00 0.00 72 999.7
20260505171530 80 263 6.0 13.0 0.00 0.00 0.00 74 999.8
20260505171022 79 224 5.0 13.0 0.00 0.00 0.00 74 999.7
20260505170520 79 224 4.0 14.0 0.00 0.00 0.00 75 1000.0
20260505170025 79 206 5.0 15.0 0.00 0.00 0.00 75 999.9
20260505165523 78 192 5.0 16.0 0.00 0.00 0.00 75 999.9
20260505165019 78 237 5.0 16.0 0.00 0.00 0.00 76 999.8
20260505164520 78 237 7.0 16.0 0.00 0.00 0.00 74 999.8
20260505164020 78 254 6.0 15.0 0.00 0.00 0.00 75 999.6
20260505163518 78 265 5.0 16.0 0.00 0.00 0.00 75 999.7
20260505163021 78 239 7.0 16.0 0.00 0.00 0.00 75 999.7
20260505162516 78 243 6.0 13.0 0.00 0.00 0.00 76 999.8
20260505162014 77 225 6.0 13.0 0.00 0.00 0.00 77 999.9
20260505161514 77 219 5.0 18.0 0.00 0.00 0.00 77 999.8
20260505161012 76 228 6.0 18.0 0.00 0.00 0.00 78 1000.0
20260505160512 76 184 7.0 14.0 0.00 0.00 0.00 77 999.8
20260505153007 75 233 4.0 15.0 0.00 0.00 0.00 80 1000.0
20260505152506 75 218 6.0 14.0 0.00 0.00 0.00 80 999.9
20260505152006 74 245 7.0 14.0 0.00 0.00 0.00 80 999.9
20260505151505 75 248 7.0 14.0 0.00 0.00 0.00 80 999.9
20260505151004 74 240 6.0 14.0 0.00 0.00 0.00 80 1000.0
20260505150505 74 256 8.0 14.0 0.00 0.00 0.00 80 1000.0
20260505140555 73 240 7.0 15.0 0.00 0.00 0.00 83 999.8
20260505124546 69 253 5.0 12.0 0.00 0.00 0.00 88 999.2
20260505124045 69 232 7.0 12.0 0.00 0.00 0.00 88 999.2
20260505123545 69 250 5.0 11.0 0.00 0.00 0.00 88 999.2
20260505123103 69 228 3.0 11.0 0.00 0.00 0.00 88 999.2
20260505122544 69 239 5.0 11.0 0.00 0.00 0.00 88 998.9
20260505122043 69 219 6.0 11.0 0.00 0.00 0.00 88 999.1
20260505121542 69 191 5.0 11.0 0.00 0.00 0.00 89 998.7
20260505121042 69 279 5.0 11.0 0.00 0.00 0.00 89 998.7
20260505120542 69 218 4.0 13.0 0.00 0.00 0.00 88 998.8
20260505120045 69 231 4.0 11.0 0.00 0.00 0.00 88 998.7
20260505115542 69 153 2.0 11.0 0.00 0.00 0.00 88 998.8
20260505115040 69 291 4.0 13.0 0.00 0.00 0.00 88 998.8
20260505114558 69 256 5.0 13.0 0.00 0.00 0.00 88 998.7
20260505114039 69 245 5.0 12.0 0.00 0.00 0.00 88 998.6
20260505113541 69 234 4.0 11.0 0.00 0.00 0.00 88 998.6
20260505113040 69 210 6.0 12.0 0.00 0.00 0.00 88 998.7
20260505112538 69 215 6.0 14.0 0.00 0.00 0.00 89 998.6
20260505112037 69 212 6.0 14.0 0.00 0.00 0.00 88 998.7
20260505111553 69 268 3.0 10.0 0.00 0.00 0.00 88 998.4
20260505111039 69 227 4.0 12.0 0.00 0.00 0.00 88 998.5
20260505110536 69 166 5.0 12.0 0.00 0.00 0.00 88 998.4